Time,TemperatureF,DewpointF,PressureIn,WindDirection,WindDirectionDegrees,WindSpeedMPH,WindSpeedGustMPH,Humidity,HourlyPrecipIn,Conditions,Clouds,dailyrainin,SoftwareType,DateUTC
2013-08-10 00:02:00,70.0,64.0,30.24,ENE,65,0.0,-999.0,82,-99.99,,,-99.99,,2013-08-10 05:02:00,
2013-08-10 00:32:00,70.0,63.0,30.25,East,80,0.0,-999.0,77,-99.99,,,-99.99,,2013-08-10 05:32:00,
2013-08-10 00:42:00,70.0,63.0,30.25,NE,55,0.0,-999.0,77,-99.99,,,-99.99,,2013-08-10 05:42:00,
2013-08-10 00:52:00,68.0,63.0,30.25,North,0,0.0,-999.0,82,-99.99,,,-99.99,,2013-08-10 05:52:00,
2013-08-10 01:02:00,68.0,63.0,30.25,ENE,70,1.0,-999.0,82,-99.99,,,-99.99,,2013-08-10 06:02:00,
2013-08-10 01:11:00,68.0,63.0,30.25,NE,42,1.0,-999.0,82,-99.99,,,-99.99,,2013-08-10 06:11:00,
2013-08-10 01:32:00,66.0,63.0,30.25,North,0,0.0,-999.0,88,-99.99,,,-99.99,,2013-08-10 06:32:00,
2013-08-10 01:44:00,66.0,63.0,30.25,ENE,67,1.0,-999.0,88,-99.99,,,-99.99,,2013-08-10 06:44:00,
2013-08-10 01:53:00,66.0,63.0,30.26,ENE,68,0.0,-999.0,88,-99.99,,,-99.99,,2013-08-10 06:53:00,
2013-08-10 02:02:00,66.0,63.0,30.26,ESE,105,0.0,-999.0,88,-99.99,,,-99.99,,2013-08-10 07:02:00,
2013-08-10 02:12:00,66.0,63.0,30.26,North,0,0.0,-999.0,88,-99.99,,,-99.99,,2013-08-10 07:12:00,
2013-08-10 02:22:00,66.0,63.0,30.26,ENE,63,1.0,-999.0,88,-99.99,,,-99.99,,2013-08-10 07:22:00,
2013-08-10 02:33:00,66.0,63.0,30.26,North,0,0.0,-999.0,88,-99.99,,,-99.99,,2013-08-10 07:33:00,
2013-08-10 02:43:00,66.0,61.0,30.27,North,0,0.0,-999.0,82,-99.99,,,-99.99,,2013-08-10 07:43:00,
2013-08-10 02:52:00,66.0,61.0,30.27,North,0,0.0,-999.0,82,-99.99,,,-99.99,,2013-08-10 07:52:00,
2013-08-10 03:01:00,66.0,61.0,30.27,NE,39,1.0,-999.0,82,-99.99,,,-99.99,,2013-08-10 08:01:00,
2013-08-10 03:12:00,66.0,61.0,30.27,East,99,1.0,-999.0,82,-99.99,,,-99.99,,2013-08-10 08:12:00,
2013-08-10 03:22:00,66.0,61.0,30.27,NE,48,1.0,-999.0,82,-99.99,,,-99.99,,2013-08-10 08:22:00,
2013-08-10 03:32:00,66.0,61.0,30.27,ESE,104,1.0,-999.0,82,-99.99,,,-99.99,,2013-08-10 08:32:00,
2013-08-10 03:43:00,66.0,61.0,30.27,NE,55,1.0,-999.0,82,-99.99,,,-99.99,,2013-08-10 08:43:00,
2013-08-10 03:53:00,66.0,61.0,30.27,North,0,0.0,-999.0,82,-99.99,,,-99.99,,2013-08-10 08:53:00,
2013-08-10 04:02:00,64.0,61.0,30.27,ENE,57,1.0,-999.0,88,-99.99,,,-99.99,,2013-08-10 09:02:00,
2013-08-10 04:12:00,64.0,61.0,30.27,ENE,73,1.0,-999.0,88,-99.99,,,-99.99,,2013-08-10 09:12:00,
2013-08-10 04:22:00,64.0,61.0,30.27,ENE,57,1.0,-999.0,88,-99.99,,,-99.99,,2013-08-10 09:22:00,
2013-08-10 04:32:00,64.0,61.0,30.27,NE,35,1.0,-999.0,88,-99.99,,,-99.99,,2013-08-10 09:32:00,
2013-08-10 04:43:00,64.0,59.0,30.27,NNE,12,2.0,-999.0,82,-99.99,,,-99.99,,2013-08-10 09:43:00,
2013-08-10 04:52:00,64.0,59.0,30.27,NNE,14,2.0,-999.0,82,-99.99,,,-99.99,,2013-08-10 09:52:00,
2013-08-10 05:02:00,64.0,59.0,30.27,North,0,0.0,-999.0,82,-99.99,,,-99.99,,2013-08-10 10:02:00,
2013-08-10 05:11:00,64.0,59.0,30.27,ENE,75,0.0,-999.0,82,-99.99,,,-99.99,,2013-08-10 10:11:00,
2013-08-10 05:22:00,64.0,59.0,30.27,NNE,21,1.0,-999.0,82,-99.99,,,-99.99,,2013-08-10 10:22:00,
2013-08-10 05:33:00,64.0,59.0,30.27,NE,37,1.0,-999.0,82,-99.99,,,-99.99,,2013-08-10 10:33:00,
2013-08-10 05:44:00,63.0,57.0,30.27,North,0,0.0,-999.0,82,-99.99,,,-99.99,,2013-08-10 10:44:00,
2013-08-10 05:52:00,63.0,57.0,30.27,NNW,342,0.0,-999.0,82,-99.99,,,-99.99,,2013-08-10 10:52:00,
2013-08-10 06:02:00,63.0,57.0,30.28,ESE,122,1.0,-999.0,82,-99.99,,,-99.99,,2013-08-10 11:02:00,
2013-08-10 06:11:00,63.0,59.0,30.28,NE,42,0.0,-999.0,88,-99.99,,,-99.99,,2013-08-10 11:11:00,
2013-08-10 06:22:00,63.0,59.0,30.28,ENE,70,0.0,-999.0,88,-99.99,,,-99.99,,2013-08-10 11:22:00,
2013-08-10 06:43:00,63.0,59.0,30.28,ENE,70,0.0,-999.0,88,-99.99,,,-99.99,,2013-08-10 11:43:00,
2013-08-10 06:53:00,63.0,59.0,30.28,NE,41,1.0,-999.0,88,-99.99,,,-99.99,,2013-08-10 11:53:00,
2013-08-10 07:11:00,64.0,61.0,30.28,NNE,13,2.0,-999.0,88,-99.99,,,-99.99,,2013-08-10 12:11:00,
2013-08-10 07:32:00,64.0,61.0,30.28,NNE,30,2.0,-999.0,88,-99.99,,,-99.99,,2013-08-10 12:32:00,
2013-08-10 07:42:00,64.0,61.0,30.28,NNE,23,2.0,-999.0,88,-99.99,,,-99.99,,2013-08-10 12:42:00,
2013-08-10 08:32:00,68.0,61.0,30.31,ENE,59,1.0,-999.0,77,-99.99,,,-99.99,,2013-08-10 13:32:00,
2013-08-10 08:43:00,70.0,61.0,30.31,ENE,61,2.0,-999.0,73,-99.99,,,-99.99,,2013-08-10 13:43:00,
2013-08-10 08:52:00,70.0,61.0,30.31,NE,53,3.0,-999.0,73,-99.99,,,-99.99,,2013-08-10 13:52:00,
2013-08-10 09:02:00,70.0,61.0,30.32,NE,40,3.0,-999.0,73,-99.99,,,-99.99,,2013-08-10 14:02:00,
2013-08-10 09:32:00,72.0,61.0,30.32,NE,42,2.0,-999.0,68,-99.99,,,-99.99,,2013-08-10 14:32:00,
2013-08-10 09:42:00,73.0,61.0,30.32,NE,43,3.0,-999.0,64,-99.99,,,-99.99,,2013-08-10 14:42:00,
2013-08-10 09:53:00,73.0,59.0,30.32,NNE,31,3.0,-999.0,60,-99.99,,,-99.99,,2013-08-10 14:53:00,
2013-08-10 10:02:00,73.0,57.0,30.32,NE,53,3.0,-999.0,56,-99.99,,,-99.99,,2013-08-10 15:02:00,
2013-08-10 10:11:00,73.0,59.0,30.32,NE,56,5.0,-999.0,60,-99.99,,,-99.99,,2013-08-10 15:11:00,
2013-08-10 10:22:00,73.0,57.0,30.33,NE,47,5.0,-999.0,56,-99.99,,,-99.99,,2013-08-10 15:22:00,
2013-08-10 10:33:00,73.0,55.0,30.32,ENE,64,5.0,-999.0,53,-99.99,,,-99.99,,2013-08-10 15:33:00,
2013-08-10 10:43:00,75.0,57.0,30.32,ENE,78,2.0,-999.0,53,-99.99,,,-99.99,,2013-08-10 15:43:00,
2013-08-10 10:52:00,75.0,57.0,30.33,NNE,16,5.0,-999.0,53,-99.99,,,-99.99,,2013-08-10 15:52:00,
2013-08-10 11:01:00,75.0,57.0,30.32,NE,45,3.0,-999.0,53,-99.99,,,-99.99,,2013-08-10 16:01:00,
2013-08-10 11:11:00,77.0,57.0,30.32,NNE,24,2.0,-999.0,50,-99.99,,,-99.99,,2013-08-10 16:11:00,
2013-08-10 11:22:00,77.0,55.0,30.33,ESE,109,5.0,-999.0,47,-99.99,,,-99.99,,2013-08-10 16:22:00,
2013-08-10 11:32:00,77.0,55.0,30.33,NE,34,3.0,-999.0,47,-99.99,,,-99.99,,2013-08-10 16:32:00,
2013-08-10 11:43:00,79.0,55.0,30.33,NE,47,5.0,-999.0,44,-99.99,,,-99.99,,2013-08-10 16:43:00,
2013-08-10 11:53:00,79.0,54.0,30.33,East,95,5.0,-999.0,41,-99.99,,,-99.99,,2013-08-10 16:53:00,
2013-08-10 12:02:00,79.0,54.0,30.33,ESE,109,6.0,-999.0,41,-99.99,,,-99.99,,2013-08-10 17:02:00,
2013-08-10 12:12:00,79.0,55.0,30.33,ENE,59,3.0,-999.0,44,-99.99,,,-99.99,,2013-08-10 17:12:00,
2013-08-10 12:22:00,79.0,55.0,30.33,NE,46,5.0,-999.0,44,-99.99,,,-99.99,,2013-08-10 17:22:00,
2013-08-10 12:33:00,79.0,55.0,30.33,NE,36,5.0,-999.0,44,-99.99,,,-99.99,,2013-08-10 17:33:00,
2013-08-10 12:43:00,81.0,55.0,30.32,SE,136,2.0,-999.0,41,-99.99,,,-99.99,,2013-08-10 17:43:00,
2013-08-10 12:52:00,79.0,55.0,30.32,ENE,69,5.0,-999.0,44,-99.99,,,-99.99,,2013-08-10 17:52:00,
2013-08-10 13:01:00,81.0,57.0,30.32,NNW,344,3.0,-999.0,44,-99.99,,,-99.99,,2013-08-10 18:01:00,
2013-08-10 13:11:00,81.0,57.0,30.32,NE,56,2.0,-999.0,44,-99.99,,,-99.99,,2013-08-10 18:11:00,
2013-08-10 13:23:00,81.0,57.0,30.31,ENE,72,5.0,-999.0,44,-99.99,,,-99.99,,2013-08-10 18:23:00,
2013-08-10 13:32:00,81.0,55.0,30.31,ENE,76,5.0,-999.0,41,-99.99,,,-99.99,,2013-08-10 18:32:00,
2013-08-10 13:44:00,81.0,55.0,30.31,North,359,2.0,-999.0,41,-99.99,,,-99.99,,2013-08-10 18:44:00,
2013-08-10 13:52:00,81.0,57.0,30.31,ESE,117,2.0,-999.0,44,-99.99,,,-99.99,,2013-08-10 18:52:00,
2013-08-10 14:02:00,81.0,57.0,30.31,North,358,3.0,-999.0,44,-99.99,,,-99.99,,2013-08-10 19:02:00,
2013-08-10 14:11:00,82.0,57.0,30.30,NNE,15,2.0,-999.0,42,-99.99,,,-99.99,,2013-08-10 19:11:00,
2013-08-10 14:22:00,82.0,57.0,30.30,North,350,3.0,-999.0,42,-99.99,,,-99.99,,2013-08-10 19:22:00,
2013-08-10 14:33:00,82.0,57.0,30.30,NNW,344,1.0,-999.0,42,-99.99,,,-99.99,,2013-08-10 19:33:00,
2013-08-10 14:44:00,82.0,57.0,30.30,NNE,30,2.0,-999.0,42,-99.99,,,-99.99,,2013-08-10 19:44:00,
2013-08-10 14:53:00,82.0,57.0,30.29,ENE,69,0.0,-999.0,42,-99.99,,,-99.99,,2013-08-10 19:53:00,
2013-08-10 15:02:00,82.0,57.0,30.29,ENE,64,5.0,-999.0,42,-99.99,,,-99.99,,2013-08-10 20:02:00,
2013-08-10 15:11:00,82.0,57.0,30.28,North,352,2.0,-999.0,42,-99.99,,,-99.99,,2013-08-10 20:11:00,
2013-08-10 15:22:00,82.0,59.0,30.28,ESE,108,2.0,-999.0,45,-99.99,,,-99.99,,2013-08-10 20:22:00,
2013-08-10 15:33:00,82.0,57.0,30.27,SSW,212,2.0,-999.0,42,-99.99,,,-99.99,,2013-08-10 20:33:00,
2013-08-10 15:43:00,82.0,59.0,30.27,WSW,249,1.0,-999.0,45,-99.99,,,-99.99,,2013-08-10 20:43:00,
2013-08-10 15:53:00,82.0,57.0,30.27,NE,53,3.0,-999.0,42,-99.99,,,-99.99,,2013-08-10 20:53:00,
2013-08-10 16:02:00,82.0,57.0,30.27,ENE,68,3.0,-999.0,42,-99.99,,,-99.99,,2013-08-10 21:02:00,
2013-08-10 16:12:00,82.0,59.0,30.27,North,10,3.0,-999.0,45,-99.99,,,-99.99,,2013-08-10 21:12:00,
2013-08-10 16:22:00,82.0,57.0,30.27,East,93,3.0,-999.0,42,-99.99,,,-99.99,,2013-08-10 21:22:00,
2013-08-10 16:32:00,82.0,59.0,30.26,North,354,2.0,-999.0,45,-99.99,,,-99.99,,2013-08-10 21:32:00,
2013-08-10 16:42:00,84.0,59.0,30.26,North,3,3.0,-999.0,42,-99.99,,,-99.99,,2013-08-10 21:42:00,
2013-08-10 16:52:00,84.0,61.0,30.26,North,357,3.0,-999.0,45,-99.99,,,-99.99,,2013-08-10 21:52:00,
2013-08-10 17:01:00,82.0,57.0,30.26,ENE,58,2.0,-999.0,42,-99.99,,,-99.99,,2013-08-10 22:01:00,
2013-08-10 17:11:00,82.0,57.0,30.25,North,8,1.0,-999.0,42,-99.99,,,-99.99,,2013-08-10 22:11:00,
2013-08-10 17:21:00,82.0,59.0,30.25,NE,45,3.0,-999.0,45,-99.99,,,-99.99,,2013-08-10 22:21:00,
2013-08-10 17:32:00,82.0,59.0,30.25,NNW,337,2.0,-999.0,45,-99.99,,,-99.99,,2013-08-10 22:32:00,
2013-08-10 17:43:00,82.0,57.0,30.25,North,5,3.0,-999.0,42,-99.99,,,-99.99,,2013-08-10 22:43:00,
2013-08-10 17:52:00,82.0,57.0,30.25,East,84,1.0,-999.0,42,-99.99,,,-99.99,,2013-08-10 22:52:00,
2013-08-10 18:01:00,82.0,61.0,30.25,East,96,1.0,-999.0,48,-99.99,,,-99.99,,2013-08-10 23:01:00,
2013-08-10 18:12:00,82.0,59.0,30.24,NNW,346,2.0,-999.0,45,-99.99,,,-99.99,,2013-08-10 23:12:00,
2013-08-10 18:22:00,82.0,59.0,30.24,ENE,65,2.0,-999.0,45,-99.99,,,-99.99,,2013-08-10 23:22:00,
2013-08-10 18:32:00,82.0,59.0,30.24,NNE,25,2.0,-999.0,45,-99.99,,,-99.99,,2013-08-10 23:32:00,
2013-08-10 18:43:00,82.0,61.0,30.24,ENE,63,3.0,-999.0,48,-99.99,,,-99.99,,2013-08-10 23:43:00,
2013-08-10 18:53:00,82.0,61.0,30.24,ENE,66,2.0,-999.0,48,-99.99,,,-99.99,,2013-08-10 23:53:00,
2013-08-10 19:02:00,82.0,61.0,30.24,ENE,69,1.0,-999.0,48,-99.99,,,-99.99,,2013-08-11 00:02:00,
2013-08-10 19:11:00,81.0,61.0,30.24,NE,46,2.0,-999.0,50,-99.99,,,-99.99,,2013-08-11 00:11:00,
2013-08-10 19:22:00,81.0,61.0,30.24,ENE,66,1.0,-999.0,50,-99.99,,,-99.99,,2013-08-11 00:22:00,
2013-08-10 19:32:00,81.0,61.0,30.24,ENE,67,2.0,-999.0,50,-99.99,,,-99.99,,2013-08-11 00:32:00,
2013-08-10 19:42:00,79.0,61.0,30.24,ENE,73,2.0,-999.0,54,-99.99,,,-99.99,,2013-08-11 00:42:00,
2013-08-10 19:52:00,79.0,61.0,30.24,ENE,75,2.0,-999.0,54,-99.99,,,-99.99,,2013-08-11 00:52:00,
2013-08-10 20:01:00,79.0,61.0,30.24,ENE,70,0.0,-999.0,54,-99.99,,,-99.99,,2013-08-11 01:01:00,
2013-08-10 20:11:00,79.0,61.0,30.24,North,0,0.0,-999.0,54,-99.99,,,-99.99,,2013-08-11 01:11:00,
2013-08-10 20:22:00,77.0,61.0,30.24,East,88,1.0,-999.0,57,-99.99,,,-99.99,,2013-08-11 01:22:00,
2013-08-10 20:32:00,77.0,61.0,30.23,North,0,0.0,-999.0,57,-99.99,,,-99.99,,2013-08-11 01:32:00,
2013-08-10 20:43:00,75.0,61.0,30.24,North,0,0.0,-999.0,60,-99.99,,,-99.99,,2013-08-11 01:43:00,
2013-08-10 20:53:00,75.0,61.0,30.24,North,0,0.0,-999.0,60,-99.99,,,-99.99,,2013-08-11 01:53:00,
2013-08-10 21:02:00,75.0,61.0,30.24,North,0,0.0,-999.0,60,-99.99,,,-99.99,,2013-08-11 02:02:00,
2013-08-10 21:11:00,73.0,61.0,30.24,North,0,0.0,-999.0,64,-99.99,,,-99.99,,2013-08-11 02:11:00,
2013-08-10 21:22:00,73.0,61.0,30.25,North,0,0.0,-999.0,64,-99.99,,,-99.99,,2013-08-11 02:22:00,
2013-08-10 21:32:00,73.0,61.0,30.25,SE,136,1.0,-999.0,64,-99.99,,,-99.99,,2013-08-11 02:32:00,
2013-08-10 21:43:00,73.0,63.0,30.25,SE,141,1.0,-999.0,68,-99.99,,,-99.99,,2013-08-11 02:43:00,
2013-08-10 21:56:00,73.0,63.0,30.26,North,0,0.0,-999.0,68,-99.99,,,-99.99,,2013-08-11 02:56:00,
2013-08-10 22:05:00,73.0,63.0,30.26,SE,135,1.0,-999.0,68,-99.99,,,-99.99,,2013-08-11 03:05:00,
2013-08-10 22:16:00,73.0,63.0,30.26,SE,141,1.0,-999.0,68,-99.99,,,-99.99,,2013-08-11 03:16:00,
2013-08-10 22:27:00,72.0,61.0,30.26,SE,145,1.0,-999.0,68,-99.99,,,-99.99,,2013-08-11 03:27:00,
2013-08-10 22:35:00,73.0,63.0,30.26,SE,143,1.0,-999.0,68,-99.99,,,-99.99,,2013-08-11 03:35:00,
2013-08-10 22:44:00,73.0,63.0,30.26,SE,135,1.0,-999.0,68,-99.99,,,-99.99,,2013-08-11 03:44:00,
2013-08-10 22:54:00,73.0,63.0,30.26,South,182,2.0,-999.0,68,-99.99,,,-99.99,,2013-08-11 03:54:00,
2013-08-10 23:01:00,72.0,61.0,30.25,SSE,153,2.0,-999.0,68,-99.99,,,-99.99,,2013-08-11 04:01:00,
2013-08-10 23:12:00,72.0,61.0,30.25,SE,138,1.0,-999.0,68,-99.99,,,-99.99,,2013-08-11 04:12:00,
2013-08-10 23:22:00,72.0,61.0,30.25,SE,146,1.0,-999.0,68,-99.99,,,-99.99,,2013-08-11 04:22:00,
2013-08-10 23:32:00,72.0,61.0,30.25,SSE,168,2.0,-999.0,68,-99.99,,,-99.99,,2013-08-11 04:32:00,
2013-08-10 23:43:00,72.0,61.0,30.25,SSE,158,1.0,-999.0,68,-99.99,,,-99.99,,2013-08-11 04:43:00,
2013-08-10 23:53:00,72.0,61.0,30.26,SSW,193,3.0,-999.0,68,-99.99,,,-99.99,,2013-08-11 04:53:00,